| time (UTC) | temp C | wind direction | speed KPH | gust KPH | rain 1hr cm | rain 24hr cm | rain mn cm | humidity % | barometer mb |
| 20260503021520 | 7 | 174 | 3.2 | 4.8 | 0.00 | 0.00 | 0.00 | 69 | 1018.6 |
| 20260503020004 | 7 | 174 | 3.2 | 6.4 | 0.00 | 0.00 | 0.00 | 68 | 1018.6 |
| 20260503014509 | 7 | 174 | 3.2 | 4.8 | 0.00 | 0.00 | 0.00 | 68 | 1018.6 |
| 20260503013010 | 7 | 174 | 3.2 | 4.8 | 0.00 | 0.00 | 0.00 | 68 | 1018.6 |
| 20260503010004 | 7 | 174 | 3.2 | 4.8 | 0.00 | 0.00 | 0.00 | 66 | 1018.8 |
| 20260503004504 | 7 | 174 | 3.2 | 4.8 | 0.00 | 0.00 | 0.00 | 65 | 1018.8 |
| 20260503003007 | 7 | 174 | 1.6 | 6.4 | 0.00 | 0.00 | 0.00 | 65 | 1018.9 |
| 20260503001512 | 8 | 174 | 3.2 | 6.4 | 0.00 | 0.00 | 0.00 | 64 | 1019.0 |
| 20260502234525 | 8 | 174 | 1.6 | 4.8 | 0.00 | 0.00 | 0.00 | 65 | 1019.2 |
| 20260502233007 | 8 | 174 | 3.2 | 6.4 | 0.00 | 0.00 | 0.00 | 64 | 1019.3 |
| 20260502224518 | 8 | 174 | 1.6 | 4.8 | 0.00 | 0.00 | 0.00 | 65 | 1019.5 |
| 20260502223022 | 8 | 174 | 1.6 | 4.8 | 0.00 | 0.00 | 0.00 | 65 | 1019.7 |
| 20260502213018 | 9 | 174 | 1.6 | 4.8 | 0.00 | 0.00 | 0.00 | 63 | 1019.7 |
| 20260502211532 | 8 | 173 | 1.6 | 4.8 | 0.00 | 0.00 | 0.00 | 65 | 1019.9 |
| 20260502204516 | 8 | 174 | 1.6 | 3.2 | 0.00 | 0.00 | 0.00 | 65 | 1020.0 |
| 20260502203018 | 9 | 174 | 1.6 | 3.2 | 0.00 | 0.00 | 0.00 | 64 | 1020.2 |
| 20260502201522 | 10 | 174 | 1.6 | 4.8 | 0.00 | 0.00 | 0.00 | 63 | 1020.2 |
| 20260502200026 | 9 | 174 | 1.6 | 4.8 | 0.00 | 0.00 | 0.00 | 63 | 1020.3 |
| 20260502194525 | 10 | 174 | 1.6 | 4.8 | 0.00 | 0.00 | 0.00 | 62 | 1020.3 |
| 20260502193013 | 10 | 210 | 3.2 | 6.4 | 0.00 | 0.00 | 0.00 | 61 | 1020.3 |
| 20260502191521 | 10 | 174 | 3.2 | 6.4 | 0.00 | 0.00 | 0.00 | 60 | 1020.3 |
| 20260502190020 | 10 | 174 | 1.6 | 3.2 | 0.00 | 0.00 | 0.00 | 59 | 1020.4 |
| 20260502184523 | 11 | 173 | 3.2 | 4.8 | 0.00 | 0.00 | 0.00 | 57 | 1020.3 |
| 20260502183010 | 11 | 174 | 3.2 | 4.8 | 0.00 | 0.00 | 0.00 | 57 | 1020.2 |
| 20260502181508 | 12 | 174 | 1.6 | 4.8 | 0.00 | 0.00 | 0.00 | 56 | 1020.2 |
| 20260502161512 | 20 | 10 | 4.8 | 12.9 | 0.00 | 0.00 | 0.00 | 33 | 1020.9 |
| 20260502151512 | 21 | 36 | 6.4 | 12.9 | 0.00 | 0.00 | 0.00 | 32 | 1021.5 |
| 20260502123007 | 23 | 353 | 1.6 | 8.0 | 0.00 | 0.00 | 0.00 | 31 | 1022.9 |
| 20260502121512 | 22 | 1 | 1.6 | 9.7 | 0.00 | 0.00 | 0.00 | 30 | 1023.0 |
| 20260502114504 | 23 | 15 | 4.8 | 11.3 | 0.00 | 0.00 | 0.00 | 29 | 1023.3 |
| 20260502113006 | 22 | 23 | 3.2 | 8.0 | 0.00 | 0.00 | 0.00 | 31 | 1023.5 |
| 20260502111512 | 21 | 90 | 1.6 | 12.9 | 0.00 | 0.00 | 0.00 | 31 | 1023.6 |
| 20260502110004 | 22 | 105 | 1.6 | 11.3 | 0.00 | 0.00 | 0.00 | 32 | 1023.8 |
| 20260502104503 | 21 | 30 | 4.8 | 12.9 | 0.00 | 0.00 | 0.00 | 30 | 1023.9 |
| 20260502103004 | 22 | 86 | 1.6 | 8.0 | 0.00 | 0.00 | 0.00 | 30 | 1024.0 |
| 20260502101514 | 22 | 131 | 1.6 | 9.7 | 0.00 | 0.00 | 0.00 | 30 | 1024.2 |
| 20260502091507 | 20 | 342 | 4.8 | 11.3 | 0.00 | 0.00 | 0.00 | 31 | 1024.8 |
| 20260502070015 | 17 | 174 | 0.0 | 1.6 | 0.00 | 0.00 | 0.00 | 44 | 1025.3 |
| 20260502064508 | 17 | 174 | 0.0 | 1.6 | 0.00 | 0.00 | 0.00 | 49 | 1025.3 |
| 20260502063024 | 17 | 174 | 0.0 | 0.0 | 0.00 | 0.00 | 0.00 | 52 | 1025.3 |
| 20260502061521 | 16 | 174 | 0.0 | 1.6 | 0.00 | 0.00 | 0.00 | 53 | 1025.6 |
| 20260502054513 | 15 | 174 | 0.0 | 0.0 | 0.00 | 0.00 | 0.00 | 54 | 1025.3 |
| 20260502053010 | 12 | 174 | 0.0 | 0.0 | 0.00 | 0.00 | 0.00 | 58 | 1025.2 |
| 20260502051514 | 11 | 174 | 0.0 | 0.0 | 0.00 | 0.00 | 0.00 | 64 | 1025.5 |
| 20260502050022 | 8 | 174 | 0.0 | 1.6 | 0.00 | 0.00 | 0.00 | 68 | 1025.4 |
| 20260502044523 | 7 | 174 | 1.6 | 3.2 | 0.00 | 0.00 | 0.00 | 71 | 1025.2 |
| 20260502043009 | 6 | 174 | 1.6 | 4.8 | 0.00 | 0.00 | 0.00 | 73 | 1025.2 |
| 20260502041512 | 6 | 173 | 3.2 | 4.8 | 0.00 | 0.00 | 0.00 | 75 | 1025.2 |
| 20260502040017 | 5 | 174 | 3.2 | 4.8 | 0.00 | 0.00 | 0.00 | 78 | 1025.3 |
| 20260502034520 | 5 | 173 | 3.2 | 6.4 | 0.00 | 0.00 | 0.00 | 78 | 1025.3 |
| 20260502033008 | 5 | 173 | 1.6 | 4.8 | 0.00 | 0.00 | 0.00 | 78 | 1025.2 |
| 20260502031513 | 5 | 173 | 1.6 | 6.4 | 0.00 | 0.00 | 0.00 | 78 | 1025.4 |
| 20260502030016 | 5 | 173 | 1.6 | 4.8 | 0.00 | 0.00 | 0.00 | 78 | 1025.3 |
| 20260502024503 | 5 | 174 | 1.6 | 4.8 | 0.00 | 0.00 | 0.00 | 77 | 1025.4 |
| 20260502023005 | 5 | 173 | 1.6 | 4.8 | 0.00 | 0.00 | 0.00 | 77 | 1025.5 |